Location: Cary
(35.7910°N, 78.7810°W)
Time: 20:06:30
(UTC-05:00)

N. Korean satellite - Pass Details

Date: 03 December 2021
Orbit: 446 x 492 km, 97.3° (Epoch: 18 January)

Event Time Altitude Azimuth Distance (km) Brightness Sun altitude
Rises 04:58:14 0° 22° (NNE) 2,456 10.3 -25.9°
Reaches altitude 10° 05:00:25 10° 33° (NNE) 1,577 9.4 -25.4°
Maximum altitude 05:03:28 31° 98° (E) 800 8.2 -24.8°
Drops below altitude 10° 05:06:30 10° 163° (SSE) 1,565 9.5 -24.2°
Sets 05:08:36 0° 173° (S) 2,408 10.3 -23.8°
